Location: Austin
(30.3000°N, 97.7500°W)
Time: 07:34:20
(UTC-05:00)

Cosmos 1606 Rocket - Pass Details

Date: 16 June 2025
Orbit: 596 x 626 km, 82.5° (Epoch: 07 July)

Event Time Altitude Azimuth Distance (km) Brightness Sun altitude
Rises 05:29:16 0° 349° (NNW) 2,840 7.3 -11.8°
Reaches altitude 10° 05:31:30 10° 345° (NNW) 1,934 6.4 -11.4°
Maximum altitude 05:35:41 58° 267° (W) 695 3.5 -10.6°
Drops below altitude 10° 05:39:52 10° 188° (S) 1,927 5.7 -9.9°
Sets 05:42:05 0° 184° (S) 2,828 6.6 -9.5°
